This is the latest recevied weather packets stored in our database for station/object N0ZRD-10. If no packets are shown the sender has not sent any weather packets the latest 10 day(s).
| Time | Temp. | Humidity | Pressure | Rain* | Wind** | Luminosity | Snow |
|---|---|---|---|---|---|---|---|
| 1777018025 | 5° C | 71% | - | 0 mm | - | - | - |
| 1777017424 | 5° C | 69% | - | 0 mm | - | - | - |
| 1777016823 | 6.11° C | 67% | - | 0 mm | - | - | - |
| 1777016222 | 6.67° C | 63% | - | 0 mm | - | - | - |
| 1777015621 | 6.67° C | 67% | - | 0 mm | - | - | - |
| 1777015020 | 6.67° C | 66% | - | 0 mm | - | - | - |
| 1777014419 | 6.67° C | 66% | - | 0 mm | - | - | - |
| 1777013818 | 7.22° C | 67% | - | 0 mm | - | - | - |
| 1777013217 | 6.67° C | 67% | - | 0 mm | - | - | - |
| 1777012615 | 7.22° C | 68% | - | 0 mm | - | - | - |
| 1777012014 | 7.22° C | 70% | - | 0 mm | - | - | - |
| 1777011413 | 7.22° C | 70% | - | 0 mm | - | - | - |
| 1777010812 | 7.78° C | 72% | - | 0 mm | - | - | - |
| 1777010211 | 8.33° C | 73% | - | 0 mm | - | - | - |
| 1777009610 | 8.33° C | 75% | - | 0 mm | - | - | - |
| 1777009009 | 7.78° C | 95% | - | 0 mm | - | - | - |
| 1777008408 | 7.22° C | 95% | - | 0 mm | - | - | - |
| 1777007807 | 7.22° C | 95% | - | 0 mm | - | - | - |
| 1777007206 | 7.22° C | 94% | - | 0 mm | - | - | - |
| 1777006606 | 7.22° C | 94% | - | 0 mm | - | - | - |
| 1777006005 | 7.22° C | 94% | - | 0 mm | - | - | - |
* Rain latest hour (hover to see other rain measurements)
** Current wind speed in m/s (hover to see current wind gust speed)